Location: Albert Place
(40.7505°N, 111.9230°W)
Time: 13:39:45
(UTC+00:00)

SL-4 R/B - Pass Details

Date: 13 December 2025
Orbit: 385 x 521 km, 51.6° (Epoch: 17 January)

Event Time Altitude Azimuth Distance (km) Brightness Sun altitude
Exits shadow 13:10:53 38° 336° (NNW) 625 2.0 -16.9°
Maximum altitude 13:11:49 55° 32° (NNE) 477 1.7 -16.7°
Drops below altitude 10° 13:14:55 10° 113° (ESE) 1,412 5.5 -16.2°
Sets 13:16:58 0° 117° (ESE) 2,258 6.9 -15.8°
